CW3512 Weather Reports


Display with metric or nautical units.
time (UTC)temp
F
wind
direction
speed
MPH
gust
MPH
rain 1hr
in
rain 24hr
in
rain mn
in
humidity
%
barometer
mb
20260507165518 59 0.0 0.0 0.00 0.03 0.01 51 1015.4
20260507164518 59 0.0 0.0 0.00 0.03 0.01 47 1015.6
20260507163518 58 0.0 0.0 0.00 0.03 0.01 49 1015.3
20260507162518 58 0.0 0.0 0.00 0.04 0.01 52 1015.5
20260507161518 58 0.0 4.0 0.00 0.04 0.01 48 1015.5
20260507160538 58 0.0 5.0 0.00 0.04 0.01 51 1015.6
20260507155518 58 0.0 1.0 0.00 0.04 0.01 51 1015.6
20260507154518 58 0.0 0.0 0.00 0.04 0.01 51 1015.6
20260507153538 57 0.0 0.0 0.01 0.04 0.01 53 1015.5
20260507152538 58 0.0 0.0 0.01 0.04 0.01 49 1015.5
20260507151518 57 0.0 0.0 0.01 0.04 0.01 53 1015.4
20260507150518 56 0.0 0.0 0.01 0.04 0.01 54 1015.3
20260507145518 57 0.0 0.0 0.01 0.04 0.01 52 1015.4
20260507144519 57 0.0 0.0 0.01 0.04 0.01 52 1015.3
20260507143519 56 0.0 0.0 0.00 0.03 0.00 53 1015.3
20260507142538 56 0.0 0.0 0.00 0.03 0.00 54 1015.2
20260507141519 55 0.0 3.0 0.00 0.03 0.00 57 1015.4
20260507140519 55 0.0 1.0 0.00 0.03 0.00 55 1015.4
20260507135519 55 0.0 0.0 0.00 0.03 0.00 56 1015.3
20260507134538 54 0.0 0.0 0.00 0.03 0.00 60 1015.3
20260507133519 53 0.0 0.0 0.00 0.03 0.00 63 1015.3
20260507132518 53 0.0 0.0 0.00 0.03 0.00 62 1015.4
20260507131518 53 0.0 0.0 0.00 0.03 0.00 62 1015.3
20260507130518 52 0.0 0.0 0.00 0.03 0.00 67 1015.4
20260507125520 51 0.0 0.0 0.00 0.03 0.00 70 1015.3
20260507124520 50 0.0 0.0 0.00 0.03 0.00 72 1015.4
20260507123540 50 0.0 0.0 0.00 0.03 0.00 74 1015.5
20260507122520 49 0.0 0.0 0.00 0.03 0.00 76 1015.5
20260507121520 48 0.0 0.0 0.00 0.03 0.00 80 1015.4
20260507120521 47 0.0 1.0 0.00 0.03 0.00 83 1015.4
20260507115540 46 0.0 0.0 0.00 0.03 0.00 86 1015.2
20260507114540 45 0.0 0.0 0.00 0.03 0.00 89 1015.2
20260507113540 44 0.0 0.0 0.00 0.03 0.00 90 1015.0
20260507112519 44 0.0 0.0 0.00 0.03 0.00 90 1015.0
20260507111520 44 0.0 0.0 0.00 0.03 0.00 90 1014.8
20260507110540 44 0.0 0.0 0.00 0.03 0.00 90 1014.6
20260507105520 44 0.0 0.0 0.00 0.03 0.00 90 1014.5
20260507104521 44 0.0 0.0 0.00 0.03 0.00 90 1014.4
20260507103520 44 0.0 0.0 0.00 0.03 0.00 89 1014.4
20260507102520 44 0.0 0.0 0.00 0.03 0.00 89 1014.3
20260507101520 44 0.0 0.0 0.00 0.03 0.00 89 1014.3
20260507100540 45 0.0 0.0 0.00 0.03 0.00 89 1014.4
20260507095520 45 0.0 0.0 0.00 0.03 0.00 88 1014.3
20260507094520 45 0.0 0.0 0.00 0.03 0.00 88 1014.3
20260507093519 45 0.0 0.0 0.00 0.03 0.00 88 1014.4
20260507092600 45 0.0 0.0 0.00 0.03 0.00 88 1014.3
20260507091519 46 0.0 0.0 0.00 0.03 0.00 87 1014.3
20260507090520 46 0.0 0.0 0.00 0.03 0.00 87 1014.3
20260507085521 46 0.0 0.0 0.00 0.03 0.00 86 1014.2
20260507084520 46 0.0 0.0 0.00 0.03 0.00 86 1014.2
20260507083519 47 0.0 0.0 0.00 0.03 0.00 86 1014.2
20260507082519 47 0.0 0.0 0.00 0.03 0.00 86 1014.0
20260507081519 47 0.0 0.0 0.00 0.03 0.00 85 1014.0
20260507080524 48 0.0 0.0 0.00 0.03 0.00 85 1014.0
20260507075519 48 0.0 0.0 0.00 0.03 0.00 85 1014.0
20260507074519 48 0.0 0.0 0.00 0.03 0.00 85 1013.8
20260507073519 49 0.0 0.0 0.00 0.03 0.00 84 1014.0
20260507072520 49 0.0 0.0 0.00 0.03 0.00 84 1014.2
20260507071600 49 0.0 0.0 0.00 0.03 0.00 85 1014.1
20260507070519 49 0.0 0.0 0.00 0.04 0.00 85 1014.1
20260507065519 49 0.0 0.0 0.00 0.04 0.00 85 1014.1
20260507064540 49 0.0 0.0 0.00 0.04 0.00 84 1014.1
20260507063519 50 0.0 0.0 0.00 0.04 0.00 84 1013.9
20260507062519 50 0.0 0.0 0.00 0.04 0.00 83 1014.3
20260507061519 50 0.0 0.0 0.00 0.04 0.00 81 1014.5
20260507060519 50 0.0 0.0 0.00 0.04 0.00 80 1014.5
20260507055519 51 0.0 0.0 0.00 0.04 0.00 80 1014.4
20260507054519 51 0.0 0.0 0.00 0.04 0.00 81 1014.1
20260507053519 51 0.0 0.0 0.00 0.04 0.00 81 1014.1
20260507052519 51 0.0 0.0 0.00 0.04 0.00 81 1014.1
20260507051519 51 0.0 0.0 0.00 0.04 0.00 81 1014.3
20260507050520 52 0.0 0.0 0.00 0.04 0.00 81 1014.3
20260507045520 52 0.0 0.0 0.00 0.04 0.00 80 1014.2
20260507044519 52 0.0 0.0 0.00 0.04 0.00 79 1014.2
20260507043520 52 0.0 0.0 0.00 0.04 0.00 77 1014.4
20260507042519 52 0.0 0.0 0.00 0.04 0.00 77 1014.4
20260507041539 53 0.0 0.0 0.00 0.04 0.00 77 1014.4
20260507040600 53 0.0 0.0 0.01 0.04 0.00 76 1014.6
20260507035520 53 0.0 0.0 0.01 0.04 0.04 76 1014.6
20260507034519 54 0.0 0.0 0.01 0.04 0.04 75 1014.6
20260507033519 54 0.0 0.0 0.01 0.04 0.04 74 1014.6
20260507032519 54 0.0 0.0 0.01 0.04 0.04 75 1014.5
20260507031519 54 0.0 0.0 0.01 0.04 0.04 74 1014.4
20260507030519 55 0.0 0.0 0.00 0.03 0.03 72 1014.4
20260507025520 55 0.0 0.0 0.00 0.03 0.03 72 1014.3
20260507024520 55 0.0 0.0 0.00 0.03 0.03 71 1013.9
20260507023519 55 0.0 0.0 0.00 0.03 0.03 72 1013.8
20260507022519 56 0.0 0.0 0.00 0.03 0.03 72 1013.7
20260507021519 56 0.0 0.0 0.00 0.03 0.03 74 1013.4
20260507020520 56 0.0 0.0 0.00 0.03 0.03 74 1013.3
20260507015519 56 0.0 0.0 0.00 0.03 0.03 75 1013.2
20260507014519 56 0.0 0.0 0.00 0.03 0.03 75 1013.1
20260507013519 56 0.0 0.0 0.00 0.03 0.03 75 1013.3
20260507012539 56 0.0 0.0 0.00 0.03 0.03 74 1013.5
20260507011559 56 0.0 0.0 0.00 0.03 0.03 73 1013.3
20260507010541 56 0.0 0.0 0.00 0.03 0.03 73 1013.4
20260507005519 56 0.0 0.0 0.00 0.03 0.03 73 1013.3
20260507004519 56 0.0 0.0 0.00 0.03 0.03 71 1013.2
20260507003519 57 0.0 0.0 0.00 0.03 0.03 71 1013.1
20260507002519 57 0.0 0.0 0.00 0.03 0.03 69 1013.1
20260507001519 57 0.0 0.0 0.00 0.03 0.03 70 1012.9
20260507000519 57 0.0 0.0 0.00 0.03 0.03 72 1012.7
20260506235519 57 0.0 0.0 0.00 0.03 0.03 70 1012.6
20260506234518 58 0.0 0.0 0.00 0.03 0.03 70 1012.9
20260506233519 58 0.0 0.0 0.00 0.03 0.03 70 1012.2
20260506232519 58 0.0 0.0 0.00 0.03 0.03 70 1012.5
20260506231518 59 0.0 0.0 0.00 0.03 0.03 69 1012.6
20260506230518 59 0.0 0.0 0.00 0.03 0.03 71 1012.5
20260506225518 59 0.0 0.0 0.00 0.03 0.03 70 1011.8
20260506224519 59 0.0 0.0 0.00 0.03 0.03 70 1011.9
20260506223519 60 0.0 0.0 0.00 0.03 0.03 69 1012.6
20260506222518 60 0.0 0.0 0.00 0.03 0.03 69 1011.9
20260506221539 60 0.0 0.0 0.00 0.03 0.03 70 1011.7
20260506220518 60 0.0 0.0 0.00 0.03 0.03 71 1012.1
20260506215518 60 0.0 0.0 0.00 0.03 0.03 72 1012.3
20260506214519 60 0.0 0.0 0.00 0.03 0.03 74 1012.4
20260506213518 60 0.0 0.0 0.00 0.03 0.03 72 1012.6
20260506212518 61 0.0 0.0 0.00 0.03 0.03 72 1012.6
20260506211518 60 0.0 0.0 0.00 0.03 0.03 71 1012.4
20260506210520 60 0.0 0.0 0.00 0.03 0.03 72 1012.3
20260506205518 60 0.0 0.0 0.01 0.03 0.03 72 1012.2
20260506204518 61 0.0 0.0 0.01 0.03 0.03 72 1012.3
20260506203518 61 0.0 0.0 0.01 0.03 0.03 72 1012.2
20260506202518 61 0.0 0.0 0.01 0.03 0.03 71 1012.3
20260506201519 60 0.0 0.0 0.01 0.03 0.03 73 1012.5
20260506200519 61 0.0 0.0 0.01 0.03 0.03 72 1012.7
20260506195539 61 0.0 0.0 0.00 0.02 0.02 73 1012.7
20260506194519 61 0.0 0.0 0.00 0.02 0.02 71 1012.8
20260506193519 61 0.0 0.0 0.00 0.02 0.02 72 1012.8
20260506192600 61 0.0 0.0 0.00 0.02 0.02 71 1012.7
20260506191539 61 0.0 0.0 0.00 0.02 0.02 74 1012.4
20260506190539 60 0.0 0.0 0.00 0.02 0.02 72 1012.3
20260506185519 61 0.0 0.0 0.00 0.02 0.02 70 1012.6
20260506184518 60 0.0 0.0 0.00 0.02 0.02 74 1012.4
20260506183539 60 0.0 2.0 0.00 0.02 0.02 74 1012.1
20260506182519 60 0.0 1.0 0.00 0.02 0.02 74 1012.3
20260506181519 60 0.0 0.0 0.00 0.02 0.02 75 1012.3
20260506180518 60 0.0 0.0 0.00 0.02 0.02 73 1012.3
20260506175519 60 0.0 0.0 0.00 0.02 0.02 75 1012.2
20260506174519 60 0.0 0.0 0.00 0.02 0.02 73 1012.3
20260506173519 60 0.0 1.0 0.00 0.02 0.02 74 1012.2
20260506172518 60 0.0 0.0 0.01 0.02 0.02 74 1012.1
20260506171518 60 0.0 0.0 0.01 0.02 0.02 77 1012.3
20260506170539 59 0.0 0.0 0.01 0.02 0.02 78 1012.2